Regional Weather Roundup
Issued by NWS Cleveland, OH

Home | Current Version | Previous Version | Graphics & Text | Print | Product List | Glossary On
Versions: 1 2 3 4 5 6 7 8 9 10 11 12 13 14 15 16 17 18 19 20 21 22 23 24 25 26 27 28 29 30 31 32 33 34 35 36 37 38 39 40 41 42 43 44 45 46 47 48 49 50
000
ASUS41 KCLE 221900
RWRCLE
OHIO REGIONAL WEATHER ROUNDUP
NATIONAL WEATHER SERVICE WILMINGTON, OH
300 PM EDT THU JUN 22 2017

NOTE: "FAIR" INDICATES FEW OR NO CLOUDS BELOW 12,000 FEET WITH NO
SIGNIFICANT WEATHER AND/OR OBSTRUCTIONS TO VISIBILITY.

OHZ001>008-015>018-024>027-034-035-043-044-222000-
   NORTHWEST OHIO

CITY           SKY/WX    TMP DP  RH WIND       PRES   REMARKS
DEFIANCE       FAIR      82  69  64 SW10      29.87F
FINDLAY        FAIR      90  66  45 SW15      29.89F HX  92
TOLEDO EXPRESS FAIR      86  68  54 SW15G23   29.87F
TOLEDO EXEC    FAIR      88  68  51 SW16G26   29.88F HX  91
LIMA           FAIR      85  69  58 SW15      29.91F
$$

OHZ009>014-019>023-028>033-038-089-222000-
   NORTHEAST OHIO

CITY           SKY/WX    TMP DP  RH WIND       PRES   REMARKS
CLE-HOPKINS    PTSUNNY   85  66  53 SW15      29.94F
CLE-LAKEFRONT  FAIR      84  64  50 S15G21    29.90F
CUY CO. ARPT   PTSUNNY   82  70  65 SW12      29.93F
LORAIN-ELYRIA  FAIR      84  63  49 SW14      29.92F
ASHTABULA      FAIR      79  72  79 SW15      29.94F
AKRON-CANTON   PTSUNNY   85  64  49 W14       29.97F
WOOSTER        NOT AVBL
MANSFIELD      FAIR      86  66  51 SW13      29.96F
YOUNGSTOWN     PTSUNNY   84  66  54 SW13G20   29.96F
$$

OHZ042-051>053-060>062-070>072-077>081-222000-
  SOUTHWEST OHIO

CITY           SKY/WX    TMP DP  RH WIND       PRES   REMARKS
CINC-COVINGTON CLOUDY    79  68  69 SW17      29.99F
CINC-LUNKEN    PTSUNNY   83  71  67 S17G25    29.98F
HAMILTON       PTSUNNY   82  70  66 S9G24     29.97F
DAYTON         NOT AVBL
WRIGHT-PAT AFB PTSUNNY   83  71  66 S16       29.96F
DAYTON GENERAL FAIR      82  70  66 S15       29.97F
WILMINGTON     PTSUNNY   81  72  74 SW14G22   29.98F
$$

OHZ036-037-039>041-045>050-054>059-063>069-073>076-082>088-222000-
  CENTRAL AND SOUTHEAST OHIO

CITY           SKY/WX    TMP DP  RH WIND       PRES   REMARKS
COLUMBUS       CLOUDY    84  69  60 SW16      29.98F
OSU AIRPORT    PTSUNNY   84  70  62 S13       29.98F
BOLTON FIELD   PTSUNNY   82  70  65 SW17      29.99F
RICKENBACK AFB NOT AVBL
NEWARK         FAIR      87  67  51 SW9G21    29.98F HX  90
MARION         FAIR      86  66  51 SW17G24   29.95F
LANCASTER      FAIR      82  70  66 SW10      30.00F
ZANESVILLE     FAIR      83  69  62 SW10      29.99F
NEW PHILLY     FAIR      85  69  58 SW7       29.98F
$$




USA.gov is the U.S. government's official web portal to all federal, state and local government web resources and services.